Ardmore Downtown, OK

3:20 PM CST on November 16, 2019 (GMT -0600)
Ardmore Downtown

Weather History for K1F0 - June, 2019

Change the Weather History Date:

Sunday, June 2, 2019

  Actual Average (WUND) Record (WUND)
Temperature  
Mean Temperature 73 °F -  
Max Temperature 80 °F - - (-1)
Min Temperature 66 °F - - (-1)
Cooling Degree Days 8    
Growing Degree Days 23 (Base 50)    
Moisture  
Dew Point 64 °F    
Average Humidity 71    
Maximum Humidity 94    
Minimum Humidity 51    
Precipitation  
Precipitation 0.00 in - - ()
Sea Level Pressure  
Sea Level Pressure 29.95 in    
Wind  
Wind Speed 2 mph (ESE)    
Max Wind Speed 9 mph    
Max Gust Speed -    
Visibility 10 miles    
Events      
Averages and records for this station are not official NWS values.
T = Trace of Precipitation, MM = Missing Value Source: NWS Daily Summary

Daily Weather History Graph

Daily Weather History Graph

Search for Another Location

Airport or City:

Astronomy

Jun. 02, 2019 Rise Set
Actual Time 6:17 AM CDT 8:35 PM CDT
Civil Twilight 5:48 AM CDT 9:04 PM CDT
Nautical Twilight 5:13 AM CDT 9:39 PM CDT
Astronomical Twilight 4:35 AM CDT 10:18 PM CDT
Moon 5:53 AM CDT (6/2) 7:59 PM CDT (6/2)
Length of Visible Light 15h 15m
Length of Day
14h 17m
Waning Crescent, 1% of the Moon is Illuminated
Jun 2
Waning Crescent
Jun 3
New
Jun 10
First Quarter
Jun 17
Full
Jun 25
Last Quarter

Hourly Weather History & Observations

Time (CDT) Temp. Heat Index Dew Point Humidity Pressure Visibility Wind Dir Wind Speed Gust Speed Precip Events Conditions
12:15 AM 69.8 °F - 62.6 °F 78% 29.92 in 10.0 mi Calm Calm - N/A   Clear
12:35 AM 68.0 °F - 62.6 °F 83% 29.93 in 10.0 mi ESE 4.6 mph - N/A   Clear
12:55 AM 68.0 °F - 62.6 °F 83% 29.93 in 10.0 mi East 3.5 mph - N/A   Clear
1:15 AM 68.0 °F - 62.6 °F 83% 29.94 in 10.0 mi ENE 3.5 mph - N/A   Clear
1:35 AM 68.0 °F - 62.6 °F 83% 29.95 in 10.0 mi Calm Calm - N/A   Clear
1:55 AM 66.2 °F - 62.6 °F 88% 29.96 in 10.0 mi West 3.5 mph - N/A   Clear
2:15 AM 66.2 °F - 62.6 °F 88% 29.95 in 10.0 mi Calm Calm - N/A   Clear
2:55 AM 66.2 °F - 62.6 °F 88% 29.95 in 10.0 mi Calm Calm - N/A   Clear
3:15 AM 66.2 °F - 62.6 °F 88% 29.94 in 10.0 mi Calm Calm - N/A   Clear
3:35 AM 66.2 °F - 62.6 °F 88% 29.94 in 10.0 mi Calm Calm - N/A   Clear
3:50 AM 66.2 °F - 62.6 °F 88% 29.96 in 10.0 mi Calm Calm - N/A   Clear
8:50 AM 71.6 °F - 62.6 °F 73% 29.97 in 10.0 mi NNE 5.8 mph - N/A   Clear
9:20 AM 71.6 °F - 62.6 °F 73% 29.97 in 10.0 mi North 4.6 mph - N/A   Clear
9:35 AM 71.6 °F - 62.6 °F 73% 29.97 in 10.0 mi NNE 8.1 mph - N/A   Clear
9:55 AM 73.4 °F - 62.6 °F 69% 29.97 in 10.0 mi NE 9.2 mph - N/A   Clear
10:35 AM 73.4 °F - 62.6 °F 69% 29.99 in 10.0 mi NNE 5.8 mph - N/A   Clear
10:55 AM 75.2 °F - 62.6 °F 65% 29.99 in 10.0 mi NNE 6.9 mph - N/A   Clear
11:15 AM 77.0 °F - 62.6 °F 61% 29.99 in 10.0 mi NNE 4.6 mph - N/A   Clear
11:35 AM 77.0 °F - 62.6 °F 61% 30.00 in 10.0 mi SSE 3.5 mph - N/A   Clear
11:55 AM 77.0 °F - 62.6 °F 61% 30.00 in 10.0 mi SE 4.6 mph - N/A   Clear
12:15 PM 78.8 °F - 62.6 °F 57% 30.00 in 10.0 mi ESE 4.6 mph - N/A   Clear
12:35 PM 78.8 °F - 62.6 °F 57% 29.99 in 10.0 mi Calm Calm - N/A   Clear
12:55 PM 78.8 °F - 64.4 °F 61% 29.99 in 10.0 mi SSE 5.8 mph - N/A   Clear
1:15 PM 78.8 °F - 64.4 °F 61% 29.99 in 10.0 mi South 4.6 mph - N/A   Clear
1:35 PM 78.8 °F - 64.4 °F 61% 29.99 in 10.0 mi SSW 3.5 mph - N/A   Clear
1:55 PM 78.8 °F - 62.6 °F 57% 29.99 in 10.0 mi South 5.8 mph - N/A   Clear
2:15 PM 78.8 °F - 62.6 °F 57% 29.98 in 10.0 mi South 4.6 mph - N/A   Clear
2:35 PM 78.8 °F - 62.6 °F 57% 29.98 in 10.0 mi SSW 3.5 mph - N/A   Scattered Clouds
2:55 PM 78.8 °F - 62.6 °F 57% 29.98 in 10.0 mi Calm Calm - N/A   Mostly Cloudy
3:35 PM 78.8 °F - 62.6 °F 57% 29.97 in 10.0 mi Calm Calm - N/A   Mostly Cloudy
3:55 PM 78.8 °F - 62.6 °F 57% 29.96 in 10.0 mi South 3.5 mph - N/A   Overcast
4:15 PM 78.8 °F - 62.6 °F 57% 29.95 in 10.0 mi South 3.5 mph - N/A   Overcast
4:35 PM 78.8 °F - 62.6 °F 57% 29.95 in 10.0 mi Calm Calm - N/A   Overcast
4:55 PM 78.8 °F - 62.6 °F 57% 29.93 in 10.0 mi Calm Calm - N/A   Scattered Clouds
5:15 PM 80.6 °F 81.5 °F 60.8 °F 51% 29.93 in 10.0 mi SE 4.6 mph - N/A   Clear
5:35 PM 80.6 °F 81.8 °F 62.6 °F 54% 29.92 in 10.0 mi Calm Calm - N/A   Clear
5:55 PM 78.8 °F - 62.6 °F 57% 29.91 in 10.0 mi Calm Calm - N/A   Clear
6:15 PM 80.6 °F 81.8 °F 62.6 °F 54% 29.91 in 10.0 mi Calm Calm - N/A   Clear
6:35 PM 80.6 °F 82.3 °F 64.4 °F 58% 29.91 in 10.0 mi SSE 3.5 mph - N/A   Clear
6:55 PM 80.6 °F 81.8 °F 62.6 °F 54% 29.90 in 10.0 mi Calm Calm - N/A   Clear
7:15 PM 78.8 °F - 62.6 °F 57% 29.91 in 10.0 mi Calm Calm - N/A   Clear
7:35 PM 77.0 °F - 64.4 °F 65% 29.91 in 10.0 mi Calm Calm - N/A   Clear
7:55 PM 78.8 °F - 64.4 °F 61% 29.91 in 10.0 mi Calm Calm - N/A   Clear
8:15 PM 77.0 °F - 66.2 °F 69% 29.91 in 10.0 mi Calm Calm - N/A   Clear
8:35 PM 75.2 °F - 68.0 °F 78% 29.91 in 10.0 mi Calm Calm - N/A   Clear
8:55 PM 73.4 °F - 68.0 °F 83% 29.92 in 10.0 mi Calm Calm - N/A   Clear
9:15 PM 71.6 °F - 68.0 °F 88% 29.92 in 10.0 mi Calm Calm - N/A   Scattered Clouds
9:35 PM 71.6 °F - 68.0 °F 88% 29.92 in 10.0 mi Calm Calm - N/A   Mostly Cloudy
9:55 PM 71.6 °F - 68.0 °F 88% 29.92 in 10.0 mi Calm Calm - N/A   Overcast
10:15 PM 71.6 °F - 68.0 °F 88% 29.93 in 10.0 mi Calm Calm - N/A   Mostly Cloudy
10:35 PM 69.8 °F - 68.0 °F 94% 29.95 in 10.0 mi Calm Calm - N/A   Scattered Clouds
10:55 PM 69.8 °F - 68.0 °F 94% 29.97 in 10.0 mi Calm Calm - N/A   Clear
11:15 PM 69.8 °F - 68.0 °F 94% 29.97 in 10.0 mi Calm Calm - N/A   Clear
11:35 PM 69.8 °F - 68.0 °F 94% 29.97 in 10.0 mi Calm Calm - N/A   Clear
11:55 PM 69.8 °F - 68.0 °F 94% 29.97 in 10.0 mi Calm Calm - N/A   Clear